STARLINK-35380, 65905

Orbit data source: Space-Track

STARLINK-35380, 65905 is a payload satellite owned by SpaceX/Seattle (US) in LEO that was launched on Tue, 07 Oct 2025 UTC via an FALCON 9 launch vehicle from the Air Force Eastern Test Range (AFETR). Payload-class satellites include a variety of spacecraft equipped with specific instruments for various scientific and technological missions. These include communications satellites like Starlink; space stations such as the ISS; scientific satellites like the Hubble; Earth observation satellites from companies like Planet Labs, Umbra, and HawkEye 360; GPS; miniature CubeSats for education and research; and military/defense satellites.

Loading next visibility...
Identifier
65905, 2025-224Z
Orbit
LEO
Country
Flag of USUS
Related business
Manufacturer
SpaceX/Seattle
Mission
Operational spacecraft
Bus & Motor
STARLINK V2MO, Unknown motor
Mass
575 kg wet, ~530 kg dry
Launch date (UTC)
2025-10-07 (2 months ago)
Launch vehicle
FALCON 9
Launch site
Air Force Eastern Test Range (AFETR)
Object type
Payload
Rocket body
Debris
Shape & HBR
Unknown shape, 17.7 m
Radar Cross Section
RCS unknown

Expand to show TLE details & history
Last TLE update: 19 hours ago

TLE from 19 hours ago
0 STARLINK-35380
1 65905U 25224Z   25340.61539908  .00037222  00000-0  12624-2 0  9998
2 65905  53.1630  83.7002 0001274  65.3704 294.7429 15.30205477 10578
Epoch: 2025-12-06T14:46Z
TLE epoch observation values (Epoch: 2025-12-06T14:46:10.480Z)
Latitude
-0.00005°
Longitude
146.5159°
Altitude
475.733 km
Speed
7.629 km/s
True Right ascension
05h 34m 48s
True Declination
0° 00' 00"
Sunlit
Object was in full shadow at epoch
Visualization orbit readout
Latitude
Unknown
Longitude
Unknown
Altitude
Unknown
Speed
Unknown
Apparent Right ascension
Unknown
Apparent Declination
Unknown
Sunlit
N/A
Visualization observer readout
Local Sidereal Time
07:21:57
Azimuth
Unknown
Elevation
Unknown
Doppler factor
Unknown
Orbital elements
Apogee altitude
476.328 km
Perigee altitude
474.582 km
Semi-major axis
6,853.592 km
Eccentricity
0.00013
Inclination
53.163°
RAAN
83.7002°
Arg. of periapsis
65.3704°
True anomaly
294.72964°
Mean anomaly
294.7429°
Eccentric anomaly
294.73627°
Mean motion
3.8253 °/min
Orbital period
94.11 mins
BSTAR
0.0012624
Loading maneuver chart data...
Computing Atmospheric mass density...
Loading historical data...
Loading historical data...
Loading historical data...
Loading historical data...
Loading historical data...
Loading historical data...
Loading historical data...

Documentation

Showing up to 5 results
|